Weather History for Prerov, Czech Republic

Change the Weather History Date:

Thursday, May 9, 2013

  Actual Average Record
Temperature  
Mean Temperature 63 °F -  
Max Temperature 75 °F - - ()
Min Temperature 51 °F - - ()
Degree Days  
Heating Degree Days 2    
Growing Degree Days 13 (Base 50)    
Moisture  
Dew Point 53 °F    
Average Humidity 69    
Maximum Humidity 94    
Minimum Humidity 44    
Precipitation  
Precipitation 0.00 in - - ()
Sea Level Pressure  
Sea Level Pressure 30.00 in    
Wind  
Wind Speed 5 mph ()    
Max Wind Speed 14 mph    
Max Gust Speed -    
Visibility 6.2 miles    
Events      
T = Trace of Precipitation, MM = Missing Value Source: Averaged Metar Reports

Daily Weather History Graph

Daily Weather History Graph

Search for Another Location

Airport:

Trip Planner

Search our weather history database for the weather conditions in past years. The results will help you decide how hot, cold, wet, or windy it might be!

Date:

Astronomy

May. 09, 2013 Rise Set
Actual Time 5:15 AM CEST 8:19 PM CEST
Civil Twilight 4:37 AM CEST 8:56 PM CEST
Nautical Twilight 3:49 AM CEST 9:46 PM CEST
Astronomical Twilight 2:48 AM CEST 10:47 PM CEST
Moon 4:53 AM CEST (5/9) 7:56 PM CEST (5/9)
Length of Visible Light 16h 19m
Length of Day
15h 03m
Waning Crescent, 0% of the Moon is Illuminated
May 9
Waning Crescent
May 10
New
May 18
First Quarter
May 25
Full
May 31
Last Quarter

Hourly Weather History & Observations

Time (CEST) Temp. Dew Point Humidity Pressure Visibility Wind Dir Wind Speed Gust Speed Precip Events Conditions
12:00 AM 59.0 °F 53.6 °F 82% 30.01 in - South 2.3 mph - N/A   Clear
1:00 AM 53.6 °F 51.8 °F 94% 30.01 in - East 3.5 mph - N/A   Clear
2:00 AM 55.4 °F 51.8 °F 88% 30.01 in - ESE 4.6 mph - N/A   Clear
3:00 AM 55.4 °F 51.8 °F 88% 30.01 in - ENE 1.2 mph - N/A   Clear
4:00 AM 51.8 °F 50.0 °F 94% 30.01 in - Variable 1.2 mph - N/A   Clear
5:00 AM 51.8 °F 50.0 °F 94% 30.01 in - East 5.8 mph - N/A   Clear
6:00 AM 53.6 °F 50.0 °F 88% 30.01 in - East 4.6 mph - N/A   Clear
7:00 AM 55.4 °F 51.8 °F 88% 30.01 in - ENE 2.3 mph - N/A   Clear
8:00 AM 59.0 °F 55.4 °F 88% 30.04 in - Variable 1.2 mph - N/A   Clear
9:00 AM 66.2 °F 57.2 °F 73% 30.04 in - Variable 2.3 mph - N/A   Clear
10:00 AM 68.0 °F 57.2 °F 68% 30.04 in - South 5.8 mph - N/A   Clear
11:00 AM 71.6 °F 59.0 °F 64% 30.04 in 6.2 mi South 8.1 mph - N/A   Partly Cloudy
12:00 PM 73.4 °F 53.6 °F 50% 30.01 in 6.2 mi South 11.5 mph - N/A   Partly Cloudy
1:00 PM 75.2 °F 55.4 °F 50% 30.01 in 6.2 mi South 11.5 mph - N/A   Partly Cloudy
2:00 PM 75.2 °F 53.6 °F 47% 30.01 in - South 13.8 mph - N/A   Clear
3:00 PM 75.2 °F 57.2 °F 53% 30.01 in - South 13.8 mph - N/A   Clear
4:00 PM 73.4 °F 50.0 °F 44% 29.98 in - South 13.8 mph - N/A   Clear
5:00 PM 73.4 °F 51.8 °F 47% 29.98 in - South 10.4 mph - N/A   Clear
6:00 PM 73.4 °F 53.6 °F 50% 29.98 in - South 5.8 mph - N/A   Clear
7:00 PM 71.6 °F 53.6 °F 53% 29.95 in - SSE 8.1 mph - N/A   Clear
8:00 PM 69.8 °F 51.8 °F 53% 29.95 in - South 5.8 mph - N/A   Clear
9:00 PM 66.2 °F 50.0 °F 56% 29.98 in - South 1.2 mph - N/A   Clear
10:00 PM 64.4 °F 51.8 °F 64% 29.98 in - SE 2.3 mph - N/A   Clear
11:00 PM 59.0 °F 53.6 °F 82% 29.98 in - East 4.6 mph - N/A   Clear